TimeEDT,TemperatureF,Dew PointF,Humidity,Sea Level PressureIn,VisibilityMPH,Wind Direction,Wind SpeedMPH,Gust SpeedMPH,PrecipitationIn,Events,Conditions,WindDirDegrees,DateUTC
1:53 AM,53.1,48.0,83,30.30,10.0,WSW,4.6,-,N/A,,Clear,250,2013-05-19 05:53:00
2:53 AM,46.9,46.0,97,30.30,10.0,ESE,3.5,-,N/A,,Clear,120,2013-05-19 06:53:00
3:53 AM,46.9,46.0,97,30.31,10.0,Calm,Calm,-,N/A,,Clear,0,2013-05-19 07:53:00
4:53 AM,45.0,43.0,93,30.31,10.0,Calm,Calm,-,N/A,,Clear,0,2013-05-19 08:53:00
5:53 AM,44.1,44.1,100,30.33,10.0,Calm,Calm,-,N/A,,Clear,0,2013-05-19 09:53:00
6:53 AM,50.0,48.9,96,30.34,10.0,Calm,Calm,-,N/A,,Clear,0,2013-05-19 10:53:00
8:53 AM,63.0,50.0,63,30.35,10.0,WNW,6.9,-,N/A,,Clear,300,2013-05-19 12:53:00
9:53 AM,64.9,50.0,58,30.35,10.0,Variable,5.8,-,N/A,,Partly Cloudy,0,2013-05-19 13:53:00
10:53 AM,66.9,48.9,52,30.33,10.0,SW,10.4,16.1,N/A,,Clear,230,2013-05-19 14:53:00
11:53 AM,68.0,48.0,49,30.32,10.0,Calm,Calm,-,N/A,,Mostly Cloudy,0,2013-05-19 15:53:00
12:53 PM,71.1,46.9,42,30.31,10.0,SSW,10.4,-,N/A,,Mostly Cloudy,210,2013-05-19 16:53:00
1:53 PM,69.1,46.9,45,30.28,10.0,Variable,4.6,-,N/A,,Overcast,0,2013-05-19 17:53:00
4:53 PM,60.1,54.0,80,30.29,10.0,NE,3.5,-,N/A,,Overcast,40,2013-05-19 20:53:00
5:53 PM,63.0,50.0,63,30.28,10.0,South,11.5,-,N/A,,Overcast,190,2013-05-19 21:53:00
6:53 PM,59.0,53.1,81,30.29,10.0,SSW,5.8,-,0.00,Rain,Light Rain,200,2013-05-19 22:53:00
7:53 PM,57.0,55.9,96,30.28,10.0,South,4.6,-,0.01,Rain,Light Rain,190,2013-05-19 23:53:00
8:53 PM,55.9,55.9,100,30.28,8.0,South,3.5,-,0.02,Rain,Light Rain,180,2013-05-20 00:53:00
9:06 PM,55.4,55.4,100,30.28,10.0,South,5.8,-,0.01,Rain,Light Rain,190,2013-05-20 01:06:00
9:53 PM,55.9,55.9,100,30.27,7.0,South,8.1,-,0.03,Rain,Light Rain,180,2013-05-20 01:53:00
10:53 PM,55.9,55.9,100,30.25,10.0,SSE,3.5,-,0.01,,Overcast,160,2013-05-20 02:53:00
11:06 PM,55.4,55.4,100,30.24,10.0,Variable,3.5,-,N/A,,Overcast,0,2013-05-20 03:06:00
11:16 PM,55.4,55.4,100,30.24,9.0,SSE,3.5,-,N/A,,Overcast,160,2013-05-20 03:16:00
11:53 PM,55.9,55.9,100,30.23,3.0,SSE,3.5,-,0.01,,Overcast,150,2013-05-20 03:53:00